Weather in Pervomaiske

Ukraine / Donetsk Region     48°05′09″N   37°36′50″E
temp.,
°C
wind,
m/s
gust,
m/s
humid.,
%
clouds,
%
prec.,
mm/h
press.,
hPa
HPBL,
m
21 april, wed
wed2100:00+9ssw6992100 0.2 1005549
03:00+9wsw7139393 0.6 1007748
06:00+8wsw51192100 0.0 1011510
09:00+10wsw61069100 0.0 1013851
12:00+14wsw794760 0.0 10142051
15:00+16wsw693881 0.0 10152516
18:00+14w574750 0.0 10161066
21:00+11ssw3561100 0.0 1018131
22 april, thu
thu2200:00+9ssw388161 0.1 1019206
03:00+8sw258724 0.2 1020126
06:00+7ssw248862 0.0 1021108
09:00+12sw23665 0.0 1022586
12:00+16sw344761 0.5 10211861
15:00+15sw3450100 0.6 1021752
18:00+14sw235393 0.0 1021532
21:00+12sw236896 0.0 102284
23 april, fri
fri2300:00+10ssw24776 0.0 102280
03:00+8sw34825 0.0 1022103
06:00+8ssw23831 0.0 102262
09:00+13ssw34635 0.0 1022603
12:00+16ssw454831 0.5 10211874
15:00+18sw5636100 0.7 10192506
18:00+16ssw674839 0.0 10181136
21:00+11ssw5970100 0.0 1019344
24 april, sat
sat2400:00+10ssw41169100 0.0 1017412
03:00+10ssw4107285 0.0 1016349
06:00+9sw498497 0.0 1015495
09:00+7nw5787100 1.4 1017552
12:00+11nw46515 0.1 10171505
15:00+14wnw5733100 0.1 10172694
18:00+13w463829 0.0 10172189
21:00+9w495637 0.0 1018381
25 april, sun
sun2500:00+8sw377094 0.1 1018575
03:00+6wsw378137 0.1 1018252
06:00+4wnw3784100 0.0 1019313
09:00+8wnw4554100 0.0 10191097
12:00+11wnw4536100 0.0 10191761
15:00+12wnw443194 0.0 10182046
18:00+11nw3338100 0.0 10181339
21:00+9nne1142100 0.0 1018156